{"data":{"norad_id":64904,"intl_designator":"2025-157A","name":"STARLINK-34647","alt_names":[],"object_type":"PAYLOAD","status":"ACTIVE","operator":null,"country":"US","launch_date":"2025-07-26","launch_site_code":"AFETR","launch_vehicle":null,"mission":null,"orbit_class":"UNKNOWN","rcs_meters":null,"size_class":null,"mass_kg":null,"dimensions":null,"purposes":["comms"],"wikipedia_slug":null,"has_3d_model":false,"image_url":null,"decayed_at":null,"tle_current":{"epoch":"2026-05-24T20:52:52.912704Z","epoch_age_seconds":80145,"freshness":"FRESH","line1":"1 64904U 25157A   26144.87005686  .00512136  00000+0  15832-1 0  9997","line2":"2 64904  53.1617 352.0858 0001229  94.9490 265.1651 15.30831489 47771","mean_motion":15.30831489,"eccentricity":0.0001229,"inclination_deg":53.1617,"raan_deg":352.0858,"arg_perigee_deg":94.949,"mean_anomaly_deg":265.1651,"bstar":0.015832,"rev_number":4777,"period_min":94.066525959736,"perigee_km":472.48815996859,"apogee_km":474.17225060765,"semimajor_km":6851.4672052881,"source":"CELESTRAK","updated_at":"2026-05-25T13:38:20.618558Z"}}}